Wahoo, NE

11:25 PM CST on February 23, 2017 (GMT -0600)
Wahoo Municipal

Weather History for KAHQ - November, 2011

Change the Weather History Date:

Tuesday, November 29, 2011

  Actual Average Record
Temperature  
Mean Temperature 35 °F -  
Max Temperature 44 °F 39 °F 75 °F (2014)
Min Temperature 26 °F 19 °F -5 °F (1976)
Degree Days  
Heating Degree Days 30    
Moisture  
Dew Point 21 °F    
Average Humidity 63    
Maximum Humidity 93    
Minimum Humidity 21    
Precipitation  
Precipitation 0.00 in - - ()
Sea Level Pressure  
Sea Level Pressure 30.28 in    
Wind  
Wind Speed 12 mph (NNW)    
Max Wind Speed 21 mph    
Max Gust Speed -    
Visibility 10 miles    
Events      
Averages and records for this station are not official NWS values.
T = Trace of Precipitation, MM = Missing Value Source: NWS Daily Summary

Daily Weather History Graph

Daily Weather History Graph

Search for Another Location

Airport or City:

Trip Planner

Search our weather history database for the weather conditions in past years. The results will help you decide how hot, cold, wet, or windy it might be!

Date:

Astronomy

Nov. 29, 2011 Rise Set
Actual Time 7:30 AM CST 4:58 PM CST
Civil Twilight 6:59 AM CST 5:29 PM CST
Nautical Twilight 6:25 AM CST 6:03 PM CST
Astronomical Twilight 5:52 AM CST 6:36 PM CST
Moon 11:16 AM CST (11/29) 9:54 PM CST (11/29)
Length of Visible Light 10h 29m
Length of Day
9h 28m
Waxing Crescent, 24% of the Moon is Illuminated
Nov 29
Waxing Crescent
Dec 2
First Quarter
Dec 10
Full
Dec 17
Last Quarter
Dec 24
New

Hourly Weather History & Observations

Time (CST) Temp. Windchill Dew Point Humidity Pressure Visibility Wind Dir Wind Speed Gust Speed Precip Events Conditions
12:15 AM 41.0 °F 31.9 °F 32.0 °F 70% 30.20 in 10.0 mi North 19.6 mph - N/A   Clear
12:35 AM 39.2 °F 29.3 °F 32.0 °F 75% 30.20 in 10.0 mi North 20.7 mph - N/A   Clear
12:55 AM 39.2 °F 29.8 °F 32.0 °F 75% 30.21 in 10.0 mi North 18.4 mph - N/A   Clear
1:15 AM 37.4 °F 28.2 °F 30.2 °F 75% 30.22 in 10.0 mi North 16.1 mph - N/A   Clear
1:35 AM 35.6 °F 26.6 °F 30.2 °F 81% 30.23 in 10.0 mi North 13.8 mph - N/A   Clear
1:55 AM 33.8 °F 25.3 °F 30.2 °F 87% 30.24 in 10.0 mi North 11.5 mph - N/A   Clear
2:15 AM 33.8 °F 25.8 °F 30.2 °F 87% 30.25 in 10.0 mi NNW 10.4 mph - N/A   Clear
2:35 AM 33.8 °F 25.3 °F 30.2 °F 87% 30.26 in 10.0 mi NNW 11.5 mph - N/A   Clear
2:55 AM 32.0 °F 23.0 °F 30.2 °F 93% 30.26 in 10.0 mi NNW 11.5 mph - N/A   Clear
3:15 AM 32.0 °F 23.0 °F 30.2 °F 93% 30.26 in 10.0 mi NNW 11.5 mph - N/A   Clear
3:35 AM 32.0 °F 22.5 °F 28.4 °F 87% 30.27 in 10.0 mi NNW 12.7 mph - N/A   Clear
3:55 AM 32.0 °F 22.1 °F 28.4 °F 87% 30.27 in 10.0 mi NNW 13.8 mph - N/A   Clear
4:15 AM 32.0 °F 22.1 °F 28.4 °F 87% 30.28 in 10.0 mi North 13.8 mph - N/A   Clear
4:35 AM 30.2 °F 20.8 °F 28.4 °F 93% 30.28 in 10.0 mi North 11.5 mph - N/A   Clear
4:55 AM 30.2 °F 20.8 °F 28.4 °F 93% 30.28 in 10.0 mi North 11.5 mph - N/A   Clear
5:15 AM 30.2 °F 20.8 °F 26.6 °F 86% 30.30 in 10.0 mi North 11.5 mph - N/A   Clear
5:35 AM 30.2 °F 20.2 °F 26.6 °F 86% 30.30 in 10.0 mi NNW 12.7 mph - N/A   Clear
5:55 AM 28.4 °F 18.5 °F 26.6 °F 93% 30.31 in 10.0 mi NNW 11.5 mph - N/A   Clear
6:15 AM 28.4 °F 20.4 °F 26.6 °F 93% 30.31 in 10.0 mi North 8.1 mph - N/A   Clear
6:35 AM 26.6 °F 17.5 °F 24.8 °F 93% 30.31 in 10.0 mi NNW 9.2 mph - N/A   Clear
6:55 AM 26.6 °F 17.5 °F 24.8 °F 93% 30.31 in 10.0 mi NNW 9.2 mph - N/A   Clear
7:15 AM 26.6 °F 16.8 °F 23.0 °F 86% 30.32 in 10.0 mi NNW 10.4 mph - N/A   Clear
7:35 AM 26.6 °F 16.8 °F 23.0 °F 86% 30.33 in 10.0 mi NNW 10.4 mph - N/A   Clear
7:55 AM 26.6 °F 16.2 °F 23.0 °F 86% 30.33 in 10.0 mi North 11.5 mph - N/A   Clear
8:15 AM 26.6 °F 15.7 °F 23.0 °F 86% 30.34 in 10.0 mi North 12.7 mph - N/A   Clear
8:35 AM 28.4 °F 19.7 °F 24.8 °F 86% 30.35 in 10.0 mi NNW 9.2 mph - N/A   Clear
8:55 AM 30.2 °F 19.8 °F 26.6 °F 86% 30.35 in 10.0 mi North 13.8 mph - N/A   Clear
9:15 AM 32.0 °F 22.1 °F 26.6 °F 80% 30.35 in 10.0 mi North 13.8 mph - N/A   Clear
9:35 AM 32.0 °F 21.6 °F 26.6 °F 80% 30.36 in 10.0 mi North 15.0 mph - N/A   Clear
9:55 AM 32.0 °F 22.1 °F 26.6 °F 80% 30.37 in 10.0 mi North 13.8 mph - N/A   Clear
10:35 AM 35.6 °F 26.2 °F 24.8 °F 65% 30.37 in 10.0 mi North 15.0 mph - N/A   Clear
10:55 AM 35.6 °F 27.5 °F 23.0 °F 60% 30.36 in 10.0 mi North 11.5 mph - N/A   Clear
11:15 AM 37.4 °F 30.3 °F 21.2 °F 52% 30.36 in 10.0 mi North 10.4 mph - N/A   Clear
11:35 AM 37.4 °F 29.8 °F 21.2 °F 52% 30.35 in 10.0 mi North 11.5 mph - N/A   Clear
11:55 AM 39.2 °F 32.0 °F 19.4 °F 45% 30.34 in 10.0 mi North 11.5 mph - N/A   Clear
12:35 PM 41.0 °F 34.3 °F 17.6 °F 39% 30.32 in 10.0 mi North 11.5 mph - N/A   Clear
12:55 PM 41.0 °F 35.2 °F 15.8 °F 36% 30.31 in 10.0 mi North 9.2 mph - N/A   Clear
1:55 PM 42.8 °F 38.0 °F 12.2 °F 29% 30.29 in 10.0 mi North 8.1 mph - N/A   Clear
2:15 PM 42.8 °F 39.3 °F 12.2 °F 29% 30.28 in 10.0 mi North 5.8 mph - N/A   Clear
2:35 PM 42.8 °F 38.0 °F 10.4 °F 27% 30.28 in 10.0 mi NNW 8.1 mph - N/A   Clear
2:55 PM 44.6 °F 41.4 °F 10.4 °F 25% 30.28 in 10.0 mi NNW 5.8 mph - N/A   Clear
3:15 PM 44.6 °F 40.7 °F 6.8 °F 21% 30.27 in 10.0 mi North 6.9 mph - N/A   Clear
3:35 PM 44.6 °F 40.2 °F 6.8 °F 21% 30.27 in 10.0 mi NNW 8.1 mph - N/A   Clear
3:55 PM 42.8 °F 38.6 °F 6.8 °F 23% 30.27 in 10.0 mi NNW 6.9 mph - N/A   Clear
4:15 PM 42.8 °F 38.6 °F 8.6 °F 25% 30.27 in 10.0 mi NNW 6.9 mph - N/A   Clear
4:35 PM 41.0 °F 39.0 °F 8.6 °F 26% 30.27 in 7.0 mi NW 3.5 mph - N/A   Clear
4:55 PM 39.2 °F 35.9 °F 10.4 °F 31% 30.26 in 10.0 mi NW 4.6 mph - N/A   Clear
5:15 PM 37.4 °F 33.8 °F 8.6 °F 30% 30.26 in 10.0 mi NW 4.6 mph - N/A   Clear
5:35 PM 37.4 °F 34.9 °F 10.4 °F 33% 30.26 in 10.0 mi NNW 3.5 mph - N/A   Clear
5:55 PM 37.4 °F 34.9 °F 5.0 °F 26% 30.25 in 10.0 mi NW 3.5 mph - N/A   Clear
6:15 PM 33.8 °F - 12.2 °F 41% 30.25 in 10.0 mi Calm Calm - N/A   Clear
6:35 PM 33.8 °F - 12.2 °F 41% 30.24 in 10.0 mi Calm Calm - N/A   Clear
6:55 PM 32.0 °F - 10.4 °F 41% 30.24 in 10.0 mi Calm Calm - N/A   Clear
7:35 PM 30.2 °F - 8.6 °F 40% 30.23 in 10.0 mi Calm Calm - N/A   Clear
7:55 PM 30.2 °F - 12.2 °F 47% 30.23 in 7.0 mi Calm Calm - N/A   Clear
8:15 PM 30.2 °F - 15.8 °F 55% 30.22 in 7.0 mi Calm Calm - N/A   Clear
8:35 PM 28.4 °F - 12.2 °F 51% 30.22 in 7.0 mi Calm Calm - N/A   Clear
8:55 PM 23.0 °F - 8.6 °F 54% 30.23 in 10.0 mi Calm Calm - N/A   Clear
9:15 PM 23.0 °F - 10.4 °F 59% 30.23 in 10.0 mi Calm Calm - N/A   Clear
9:35 PM 23.0 °F - 10.4 °F 59% 30.22 in 10.0 mi Calm Calm - N/A   Clear
9:55 PM 23.0 °F 18.4 °F 10.4 °F 59% 30.21 in 10.0 mi South 3.5 mph - N/A   Clear
10:15 PM 21.2 °F - 10.4 °F 63% 30.21 in 10.0 mi Calm Calm - N/A   Clear
10:35 PM 23.0 °F 18.4 °F 12.2 °F 63% 30.20 in 10.0 mi SW 3.5 mph - N/A   Clear
10:55 PM 23.0 °F 18.4 °F 12.2 °F 63% 30.20 in 10.0 mi SW 3.5 mph - N/A   Clear
11:15 PM 21.2 °F - 12.2 °F 68% 30.19 in 10.0 mi Calm Calm - N/A   Clear
11:35 PM 21.2 °F - 10.4 °F 63% 30.19 in 10.0 mi Calm Calm - N/A   Clear
11:55 PM 19.4 °F - 10.4 °F 68% 30.18 in 10.0 mi Calm Calm - N/A   Clear